Flag for U.S.A. Weather past 2 weeks in Atlantic City, New Jersey, U.S.A.

Now
77 °F

Sunny.


Feels Like: 79 °F
Forecast: 69 / 82 °F
Wind: 7 mph from Southwest

Location: Atlantic City International Airport

Current Time: Aug 30, 2015 at 11:03:18 AM

Latest Report: Aug 30, 2015 at 8:54 AM


Visibility: 10 mi

Pressure: 30.13 "Hg

Humidity: 62%

Dew point: 63 °F

Location of Atlantic CityLocation

Historic Weather in Atlantic City — Graph

°F

Atlantic City temperature yesterday

Maximum temperature yesterday: 86 °F (at 12:54 PM)
Minimum temperature yesterday: 56 °F (at 4:54 AM)
Average temperature yesterday: 73 °F

Past Weeks' High & Low Weather Summary

 TemperatureHumidityPressure
High91 °F (Aug 16, 2:54 PM)97% (Aug 21, 6:54 AM)30.23 "Hg (Aug 21, 6:54 AM)
Low56 °F (Aug 29, 4:54 AM)33% (Aug 28, 12:54 PM)29.84 "Hg (Aug 25, 3:54 PM)
Average76 °F69%30.04 "Hg
* Reported Aug 15 8:54 AM — Aug 30 8:54 AM, Atlantic City, Weather by CustomWeather, © 2015

Note: Actual official high and low records may vary slightly from our data, if they occured in-between our weather recording intervals... More about our weather records

Advertising

Atlantic City weather history for previous 24 hours

 ConditionsComfort  
Time TempWeatherWind HumidityBarometerVisibility
8:54 AM
Sun, Aug 30
77 °FSunny.7 mph62%30.13 "Hg10 mi
7:54 AM72 °FSunny.6 mph76%30.12 "Hg10 mi
6:54 AM67 °FClear.3 mph87%30.12 "Hg10 mi
5:54 AM68 °FPassing clouds.3 mph84%30.11 "Hg10 mi
4:54 AM65 °FPassing clouds.No wind87%30.10 "Hg10 mi
3:54 AM68 °FPassing clouds.No wind84%30.11 "Hg10 mi
2:54 AM69 °FClear.No wind81%30.11 "Hg10 mi
1:54 AM69 °FClear.3 mph81%30.12 "Hg10 mi
12:54 AM71 °FClear.5 mph76%30.13 "Hg10 mi
11:54 PM
Sat, Aug 29
71 °FClear.6 mph76%30.14 "Hg10 mi
10:54 PM72 °FClear.6 mph73%30.14 "Hg10 mi
9:54 PM73 °FClear.6 mph71%30.14 "Hg10 mi
8:54 PM74 °FClear.6 mph67%30.13 "Hg10 mi
7:54 PM75 °FSunny.7 mph64%30.12 "Hg10 mi
6:54 PM77 °FSunny.9 mph56%30.12 "Hg10 mi
5:54 PM80 °FSunny.10 mph49%30.12 "Hg10 mi
4:54 PM81 °FSunny.14 mph45%30.13 "Hg10 mi
3:54 PM81 °FPassing clouds.13 mph51%30.14 "Hg10 mi
2:54 PM82 °FPartly sunny.9 mph53%30.15 "Hg10 mi
1:54 PM84 °FScattered clouds.6 mph41%30.17 "Hg10 mi
12:54 PM86 °FPassing clouds.7 mph37%30.20 "Hg10 mi
11:54 AM83 °FPassing clouds.9 mph40%30.22 "Hg10 mi
Weather by CustomWeather, © 2015

See weather overviewHow to use our weather pages